Location: Briis
(48.6240°N, 2.1211°E)
Time: 11:10:19
(UTC+00:00)

Cosmos 44 - Pass Details

Date: 25 September 2020
Orbit: 580 x 782 km, 65.1° (Epoch: 25 October)

Event Time Altitude Azimuth Distance (km) Brightness Sun altitude
Exits shadow 03:46:57 26° 304° (NW) 1,264 4.3 -19.5°
Maximum altitude 03:47:50 28° 325° (NW) 1,219 4.4 -19.4°
Drops below altitude 10° 03:51:57 10° 24° (NNE) 2,110 6.4 -18.8°
Sets 03:54:39 0° 36° (NE) 3,067 7.6 -18.3°
